User: anonymous   Login
Location: Unspecified
(0.0000°N, 0.0000°E)
Time: 09:10:31
(UTC+00:00)
Language:

Eole - Orbit

View from above orbital plane
View from above orbital plane
View from above satellite
View from above satellite

Ground track
Ground track

The orbit data is extracted from the following two-line orbital elements,

1  5435U 71071A   17086.61626423 +.00000081 +00000-0 +60164-4 0  9995
2  5435 050.1407 214.2648 0110815 171.9438 188.3302 14.54976321385061
Epoch (UTC): 27 March 2017 14:47:25
Eccentricity: 0.0110815
inclination: 50.1407°
perigee height: 631 km
apogee height: 788 km
right ascension of ascending node: 214.2648°
argument of perigee: 171.9438°
revolutions per day: 14.54976321
mean anomaly at epoch: 188.3302°
orbit number at epoch: 38506

The dashed part of the orbit path shows where the satellite is in the earth's shadow,  

DLR